Location: Eitze
(52.9840°N, 9.6894°E)
Time: 23:43:31
(UTC+00:00)

Cosmos 1420 Rocket - Pass Details

Date: 19 May 2025
Orbit: 750 x 777 km, 74.0° (Epoch: 15 June)

Event Time Altitude Azimuth Distance (km) Brightness Sun altitude
Rises 23:33:27 0° 331° (NNW) 3,272 8.2 -16.9°
Reaches altitude 10° 23:35:54 10° 326° (NNW) 2,339 7.3 -16.9°
Maximum altitude 23:41:01 51° 252° (WSW) 978 4.4 -16.9°
Enters shadow 23:43:27 29° 193° (SSW) 1,404 4.8 -16.8°
